This demonstration page uses our WeatherBlox Daily Observations layout. Learn more.

Left ArrowRight Arrow

44.8408, -93.29828

Hourly Observations for February 15, 2019

Temp ( °F °C ) Dew Point ( °F °C ) Humidity (%) Winds ( mph kmh ) Pressure ( in mb ) Visibility ( mi km ) Precip ( " mm )
12:53 am 00:53 Mostly Clear 0 -17.8 -6 -21.1 76 76 WNW 17 28 30.01 1016 10 16 0.00 0.00
1:53 am 01:53 Mostly Clear -1 -18.3 -7 -21.7 75 75 WNW 13 20 30.03 1017 10 16 0.00 0.00
2:53 am 02:53 Mostly Clear -2 -18.9 -8 -22.2 75 75 WNW 9 15 30.04 1017 10 16 0.00 0.00
3:53 am 03:53 Clear -3 -19.4 -8 -22.2 79 79 WNW 9 15 30.04 1017 10 16 0.00 0.00
4:53 am 04:53 Clear -2 -18.9 -7 -21.7 79 79 WNW 10 17 30.06 1018 10 16 0.00 0.00
5:53 am 05:53 Clear -3 -19.4 -8 -22.2 79 79 NW 12 19 30.06 1018 10 16 0.00 0.00
6:53 am 06:53 Clear -3 -19.4 -8 -22.2 79 79 NW 9 15 30.07 1018 10 16 0.00 0.00
7:53 am 07:53 Sunny -2 -18.9 -7 -21.7 79 79 NNW 13 20 30.07 1018 10 16 0.00 0.00
8:53 am 08:53 Sunny 1 -17.2 -5 -20.6 75 75 NNW 12 19 30.09 1019 10 16 0.00 0.00
9:53 am 09:53 Sunny 4 -15.6 -3 -19.4 73 73 NW 9 15 30.10 1019 10 16 0.00 0.00
10:53 am 10:53 Sunny 8 -13.3 -1 -18.3 66 66 WNW 9 15 30.11 1020 10 16 0.00 0.00
11:53 am 11:53 Sunny 10 -12.2 0 -17.8 63 63 W 12 19 30.13 1020 10 16 0.00 0.00
12:53 pm 12:53 Mostly Sunny 12 -11.1 2 -16.7 64 64 W 13 20 30.14 1021 10 16 0.00 0.00
1:53 pm 13:53 Mostly Sunny 12 -11.1 1 -17.2 61 61 W 14 22 30.15 1021 10 16 0.00 0.00
2:53 pm 14:53 Mostly Sunny 13 -10.6 3 -16.1 64 64 WNW 9 15 30.15 1021 10 16 0.00 0.00
3:53 pm 15:53 Mostly Sunny 14 -10 3 -16.1 61 61 NW 12 19 30.16 1021 10 16 0.00 0.00
4:53 pm 16:53 Mostly Sunny 15 -9.4 4 -15.6 61 61 NNW 9 15 30.16 1021 10 16 0.00 0.00
5:53 pm 17:53 Mostly Clear 12 -11.1 2 -16.7 64 64 NW 8 13 30.18 1022 10 16 0.00 0.00
6:53 pm 18:53 Mostly Clear 11 -11.7 2 -16.7 67 67 WNW 5 7 30.21 1023 10 16 0.00 0.00
7:53 pm 19:53 Mostly Clear 9 -12.8 1 -17.2 70 70 W 7 11 30.22 1023 10 16 0.00 0.00
8:53 pm 20:53 Mostly Clear 6 -14.4 1 -17.2 79 79 WNW 5 7 30.21 1023 10 16 0.00 0.00
9:53 pm 21:53 Mostly Clear 6 -14.4 0 -17.8 76 76 W 7 11 30.20 1023 10 16 0.00 0.00
10:53 pm 22:53 Partly Cloudy 4 -15.6 -1 -18.3 80 80 Calm 30.20 1023 10 16 0.00 0.00
11:53 pm 23:53 Mostly Cloudy 2 -16.7 -2 -18.9 83 83 WSW 5 7 30.22 1024 10 16 0.00 0.00

Powered by AerisWeather